Regional Weather Roundup
Issued by NWS

Home | Current Version | Previous Version | Text Only | Print | Product List | Glossary On
Versions: 1 2 3 4 5 6 7 8 9 10 11 12 13 14 15 16 17 18 19 20 21 22 23 24 25 26 27 28 29 30 31 32 33 34 35 36 37 38 39 40 41 42 43 44 45 46 47 48 49 50
000
ASUS43 KTOP 191008
RWRKS

WEATHER ROUNDUP FOR KANSAS
NATIONAL WEATHER SERVICE GOODLAND KS
400 AM CST FRI JAN 19 2018

NOTE:  "FAIR" INDICATES FEW OR NO CLOUDS BELOW 12,000 FEET WITH NO
SIGNIFICANT WEATHER AND/OR OBSTRUCTIONS TO VISIBILITY.

KSZ001>006-013>018-027>032-041>047-191100-
NORTHWEST KANSAS

CITY           SKY/WX    TMP DP  RH WIND       PRES   REMARKS
GOODLAND       MOCLDY    38  15  39 SW13      29.81F WCI  30
HAYS           CLOUDY    28  18  66 SW9       29.87F
HILL CITY      CLOUDY    31  14  49 W6        29.82F
RUSSELL        CLOUDY    32  18  56 S17       29.86F WCI  21
$$

KSZ061>065-074>080-084>089-191100-
SOUTHWEST KANSAS

CITY           SKY/WX    TMP DP  RH WIND       PRES   REMARKS
DODGE CITY     CLOUDY    32  12  43 SW12      29.91F WCI  23
ELKHART        PTCLDY    41  13  32 W13       29.90F
GARDEN CITY    CLOUDY    27   8  44 W9        29.89S
GREAT BEND     CLOUDY    30  19  63 S12       29.91F WCI  20
LIBERAL        CLOUDY    24   9  52 SW10      29.92F WCI  14
PRATT          CLOUDY    27  16  64 S13       29.93F WCI  16
$$

KSZ066>073-081>083-090>101-191100-
SOUTHEAST KANSAS

CITY           SKY/WX    TMP DP  RH WIND       PRES   REMARKS
CHANUTE        CLOUDY    30  15  53 S13       30.07F WCI  20
COFFEYVILLE    CLOUDY    30  16  56 S12       30.10F WCI  20
HUTCHINSON     CLOUDY    29  20  69 S8        29.96F
MEDICINE LODGE   N/A     26  18  71 CALM      29.97F
NEWTON         CLOUDY    31  19  61 S16       29.97F WCI  20
PARSONS        CLOUDY    30  16  56 S8        30.10S
WICHITA INTL   CLOUDY    29  16  58 S14       29.99F WCI  18
WICHITA JABRA  CLOUDY    31  16  54 S15       29.99F WCI  20
WICHITA MCCONL CLOUDY    31  14  50 SW16      29.99F WCI  19
WINFIELD       CLOUDY    30  15  53 S12       30.05F WCI  20
$$

KSZ007>012-019>026-033>040-048>060-102>105-191100-
NORTHEAST KANSAS

CITY           SKY/WX    TMP DP  RH WIND       PRES   REMARKS
CONCORDIA      CLOUDY    35  22  58 SW14      29.86S WCI  26
EMPORIA        CLOUDY    31  18  58 S10       29.97F WCI  22
LAWRENCE       CLOUDY    35  19  52 S10       29.97F WCI  27
MANHATTAN      CLOUDY    37  22  54 SW12      29.92F WCI  29
MARYSVILLE     CLOUDY    34  25  69 SW13      29.87F WCI  25
OLATHE IND     CLOUDY    33  17  51 S18       29.99F WCI  22
OLATHE EXE     CLOUDY    31  18  58 SW13      29.98F WCI  21
SALINA         CLOUDY    34  23  64 S18       29.91F WCI  23
TOPEKA BILLARD CLOUDY    33  21  61 S8        29.95F
TOPEKA FORBES  CLOUDY    33  20  58 S16       29.94F WCI  23
$$




USA.gov is the U.S. government's official web portal to all federal, state and local government web resources and services.